WZZ1YL EPWA-LBSF

Flight info

Callsign WZZ1YL
Flight time 1h 38m
Altitude 39000
Route XIMBA N195 NATEV DCT ROBTU DCT KENIN DCT BADOR DCT OSTOV DCT GOL
Aircraft A20N/M-SDE1E2E3FGIJ1J4RWXY/LB1

Departure

Time 2026-05-07 11:52
Airport Warsaw Chopin Airport (EPWA)

Arrival

Time 2026-05-07 13:31
Airport Sofia Airport (LBSF)
Time Latitude Longitude Altitude Speed Heading
2026-05-07 11:37 52.17003 20.97157 333 ft 0 kts 72°
2026-05-07 11:44 52.17000 20.97145 331 ft 1 kts 72°
2026-05-07 11:44 52.16998 20.97133 332 ft 1 kts 72°
2026-05-07 11:45 52.16995 20.97121 332 ft 1 kts 72°
2026-05-07 11:45 52.16993 20.97109 334 ft 1 kts 72°
2026-05-07 11:45 52.16991 20.97097 331 ft 1 kts 72°
2026-05-07 11:45 52.16988 20.97085 331 ft 1 kts 72°
2026-05-07 11:46 52.16986 20.97073 331 ft 1 kts 72°
2026-05-07 11:46 52.16981 20.97051 332 ft 2 kts 75°
2026-05-07 11:46 52.16978 20.97027 332 ft 2 kts 92°
2026-05-07 11:46 52.16981 20.97003 333 ft 2 kts 123°
2026-05-07 11:47 52.16986 20.96992 333 ft 1 kts 141°
2026-05-07 11:47 52.16983 20.97000 333 ft 0 kts 128°
2026-05-07 11:47 52.16969 20.97016 331 ft 7 kts 150°
2026-05-07 11:48 52.16902 20.97067 334 ft 14 kts 153°
2026-05-07 11:48 52.16801 20.97155 334 ft 19 kts 153°
2026-05-07 11:48 52.16677 20.97263 336 ft 22 kts 151°
2026-05-07 11:48 52.16563 20.97409 334 ft 20 kts 114°
2026-05-07 11:49 52.16499 20.97639 332 ft 24 kts 114°
2026-05-07 11:49 52.16434 20.97867 334 ft 22 kts 114°
2026-05-07 11:49 52.16369 20.98098 333 ft 22 kts 114°
2026-05-07 11:49 52.16303 20.98326 334 ft 21 kts 116°
2026-05-07 11:50 52.16243 20.98462 334 ft 11 kts 168°
2026-05-07 11:50 52.16160 20.98412 330 ft 15 kts 202°
2026-05-07 11:50 52.16124 20.98326 332 ft 9 kts 288°
2026-05-07 11:50 52.16127 20.98311 331 ft 2 kts 292°
2026-05-07 11:51 52.16131 20.98298 332 ft 0 kts 294°
2026-05-07 11:51 52.16147 20.98241 330 ft 26 kts 295°
2026-05-07 11:51 52.16322 20.97616 331 ft 95 kts 295°
2026-05-07 11:52 52.16674 20.96368 363 ft 143 kts 295°
2026-05-07 11:52 52.17081 20.94937 903 ft 145 kts 296°
2026-05-07 11:52 52.17516 20.93425 1526 ft 149 kts 296°
2026-05-07 11:52 52.17965 20.91890 2161 ft 152 kts 296°
2026-05-07 11:53 52.18438 20.90298 2776 ft 160 kts 295°
2026-05-07 11:53 52.18936 20.88608 3462 ft 171 kts 294°
2026-05-07 11:53 52.19439 20.86793 4201 ft 183 kts 284°
2026-05-07 11:53 52.19406 20.84655 4759 ft 202 kts 246°
2026-05-07 11:54 52.18509 20.82812 5423 ft 220 kts 214°
2026-05-07 11:54 52.17000 20.81988 6042 ft 246 kts 185°
2026-05-07 11:54 52.15251 20.82581 6722 ft 270 kts 156°
2026-05-07 11:54 52.13802 20.84601 7671 ft 283 kts 129°
2026-05-07 11:55 52.12793 20.87411 8639 ft 291 kts 123°
2026-05-07 11:55 52.11691 20.90183 9643 ft 292 kts 131°
2026-05-07 11:55 52.10324 20.92661 10458 ft 300 kts 140°
2026-05-07 11:55 52.08691 20.94943 10877 ft 320 kts 146°
2026-05-07 11:56 52.06850 20.97134 11345 ft 337 kts 149°
2026-05-07 11:56 52.04911 20.99302 12268 ft 339 kts 149°
2026-05-07 11:56 52.02952 21.01466 13233 ft 342 kts 149°
2026-05-07 11:56 52.01081 21.03533 14032 ft 346 kts 149°
2026-05-07 11:57 51.99072 21.05755 14806 ft 350 kts 149°
2026-05-07 11:57 51.97047 21.08002 15578 ft 355 kts 149°
2026-05-07 11:57 51.95002 21.10276 16347 ft 359 kts 149°
2026-05-07 11:57 51.92958 21.12550 17094 ft 363 kts 149°
2026-05-07 11:58 51.90832 21.14915 17849 ft 368 kts 149°
2026-05-07 11:58 51.88739 21.17241 18522 ft 372 kts 149°
2026-05-07 11:58 51.86595 21.19622 19193 ft 375 kts 149°
2026-05-07 11:58 51.84431 21.22022 19854 ft 379 kts 150°
2026-05-07 11:59 51.82248 21.24440 20497 ft 382 kts 150°
2026-05-07 11:59 51.80042 21.26880 21141 ft 386 kts 150°
2026-05-07 11:59 51.77816 21.29339 21809 ft 389 kts 150°
2026-05-07 11:59 51.75576 21.31810 22464 ft 392 kts 150°
2026-05-07 12:00 51.73310 21.34302 23048 ft 396 kts 150°
2026-05-07 12:00 51.71023 21.36816 23627 ft 400 kts 150°
2026-05-07 12:00 51.68717 21.39351 24187 ft 402 kts 150°
2026-05-07 12:00 51.66402 21.41894 24744 ft 404 kts 150°
2026-05-07 12:01 51.64026 21.44301 25272 ft 404 kts 154°
2026-05-07 12:01 51.61605 21.46620 25795 ft 406 kts 154°
2026-05-07 12:01 51.59170 21.48959 26321 ft 408 kts 154°
2026-05-07 12:01 51.57555 21.50510 26651 ft 410 kts 154°
2026-05-07 12:02 51.54263 21.53668 27303 ft 413 kts 154°
2026-05-07 12:02 51.51794 21.56032 27773 ft 415 kts 154°
2026-05-07 12:02 51.49306 21.58411 28231 ft 417 kts 154°
2026-05-07 12:02 51.46809 21.60797 28674 ft 419 kts 155°
2026-05-07 12:03 51.44289 21.63198 28935 ft 424 kts 154°
2026-05-07 12:03 51.41762 21.65603 29339 ft 427 kts 155°
2026-05-07 12:03 51.39206 21.68036 29776 ft 428 kts 155°
2026-05-07 12:03 51.36635 21.70481 30152 ft 431 kts 155°
2026-05-07 12:04 51.34054 21.72936 30482 ft 433 kts 155°
2026-05-07 12:04 51.31456 21.75405 30815 ft 436 kts 155°
2026-05-07 12:04 51.28844 21.77885 31177 ft 437 kts 155°
2026-05-07 12:04 51.26228 21.80365 31614 ft 437 kts 155°
2026-05-07 12:05 51.24497 21.82005 31906 ft 436 kts 155°
2026-05-07 12:05 51.21050 21.85265 32503 ft 435 kts 155°
2026-05-07 12:05 51.18447 21.87721 32924 ft 435 kts 155°
2026-05-07 12:05 51.16689 21.89374 33166 ft 434 kts 155°
2026-05-07 12:06 51.14079 21.91822 33487 ft 436 kts 155°
2026-05-07 12:06 51.11465 21.94268 33873 ft 436 kts 155°
2026-05-07 12:06 51.08851 21.96708 34218 ft 435 kts 155°
2026-05-07 12:06 51.06246 21.99140 34568 ft 434 kts 155°
2026-05-07 12:07 51.03641 22.01568 34874 ft 434 kts 155°
2026-05-07 12:07 51.01037 22.03991 35191 ft 434 kts 155°
2026-05-07 12:07 50.98436 22.06410 35501 ft 433 kts 155°
2026-05-07 12:07 50.95835 22.08825 35808 ft 433 kts 155°
2026-05-07 12:08 50.93237 22.11234 36106 ft 432 kts 155°
2026-05-07 12:08 50.90631 22.13605 36395 ft 430 kts 158°
2026-05-07 12:08 50.87884 22.15351 36637 ft 423 kts 169°
2026-05-07 12:08 50.85015 22.16236 36771 ft 419 kts 179°
2026-05-07 12:09 50.82119 22.16246 36995 ft 414 kts 189°
2026-05-07 12:09 50.79264 22.15697 37244 ft 413 kts 190°
2026-05-07 12:09 50.76448 22.15154 37507 ft 413 kts 190°
2026-05-07 12:09 50.73557 22.14608 37766 ft 413 kts 190°
2026-05-07 12:10 50.70745 22.14082 38009 ft 412 kts 190°
2026-05-07 12:10 50.67894 22.13552 38252 ft 412 kts 190°
2026-05-07 12:10 50.65051 22.13023 38468 ft 412 kts 190°
2026-05-07 12:10 50.62206 22.12493 38673 ft 411 kts 190°
2026-05-07 12:11 50.59365 22.11965 38837 ft 411 kts 190°
2026-05-07 12:11 50.53671 22.10909 38926 ft 412 kts 190°
2026-05-07 12:12 50.47991 22.09858 38926 ft 411 kts 190°
2026-05-07 12:12 50.42309 22.08809 38918 ft 411 kts 190°
2026-05-07 12:13 50.36625 22.07761 38920 ft 411 kts 189°
2026-05-07 12:13 50.30937 22.06716 38924 ft 412 kts 189°
2026-05-07 12:14 50.25244 22.05673 38923 ft 412 kts 189°
2026-05-07 12:14 50.19547 22.04632 38912 ft 412 kts 189°
2026-05-07 12:15 50.13846 22.03591 38916 ft 412 kts 189°
2026-05-07 12:15 50.08147 22.02555 38910 ft 412 kts 189°
2026-05-07 12:16 50.02449 22.01521 38913 ft 413 kts 189°
2026-05-07 12:16 49.96743 22.00487 38917 ft 413 kts 189°
2026-05-07 12:17 49.91036 21.99456 38937 ft 413 kts 189°
2026-05-07 12:17 49.85324 21.98426 38944 ft 414 kts 189°
2026-05-07 12:18 49.79642 21.97404 38946 ft 414 kts 189°
2026-05-07 12:18 49.73917 21.96378 38953 ft 414 kts 189°
2026-05-07 12:19 49.68195 21.95354 38950 ft 414 kts 189°
2026-05-07 12:19 49.62477 21.94333 38953 ft 414 kts 189°
2026-05-07 12:20 49.56763 21.93315 38952 ft 413 kts 189°
2026-05-07 12:20 49.51053 21.92300 38953 ft 413 kts 189°
2026-05-07 12:21 49.45347 21.91289 38949 ft 413 kts 189°
2026-05-07 12:21 49.39643 21.90281 38952 ft 412 kts 189°
2026-05-07 12:22 49.33943 21.89275 38942 ft 412 kts 189°
2026-05-07 12:22 49.28242 21.88272 38948 ft 412 kts 189°
2026-05-07 12:23 49.22541 21.87271 38934 ft 413 kts 189°
2026-05-07 12:23 49.16838 21.86272 38944 ft 413 kts 189°
2026-05-07 12:24 49.11141 21.85276 38948 ft 413 kts 189°
2026-05-07 12:24 49.05422 21.84279 38961 ft 414 kts 189°
2026-05-07 12:25 48.99695 21.83282 38965 ft 415 kts 189°
2026-05-07 12:25 48.93960 21.82287 38967 ft 415 kts 189°
2026-05-07 12:26 48.88166 21.81971 38965 ft 419 kts 180°
2026-05-07 12:26 48.82354 21.82948 38967 ft 421 kts 175°
2026-05-07 12:27 48.76550 21.84224 38981 ft 421 kts 175°
2026-05-07 12:27 48.70744 21.85463 38979 ft 421 kts 175°
2026-05-07 12:28 48.64972 21.86682 38974 ft 421 kts 175°
2026-05-07 12:28 48.59130 21.87912 38989 ft 421 kts 175°
2026-05-07 12:29 48.53372 21.89122 38989 ft 421 kts 175°
2026-05-07 12:29 48.47573 21.90338 38981 ft 420 kts 175°
2026-05-07 12:30 48.41787 21.91549 38979 ft 420 kts 175°
2026-05-07 12:30 48.36020 21.92753 38983 ft 419 kts 175°
2026-05-07 12:31 48.30248 21.94064 38969 ft 419 kts 174°
2026-05-07 12:31 48.24488 21.95429 38964 ft 419 kts 174°
2026-05-07 12:32 48.18762 21.96763 38972 ft 420 kts 175°
2026-05-07 12:32 48.12988 21.98099 38986 ft 420 kts 175°
2026-05-07 12:33 48.04319 22.00097 38990 ft 420 kts 175°
2026-05-07 12:33 47.98538 22.01426 38997 ft 421 kts 175°
2026-05-07 12:34 47.92751 22.02753 38998 ft 421 kts 175°
2026-05-07 12:34 47.86959 22.04078 39003 ft 421 kts 175°
2026-05-07 12:35 47.81162 22.05402 38980 ft 422 kts 175°
2026-05-07 12:35 47.75357 22.06724 38984 ft 422 kts 175°
2026-05-07 12:36 47.69535 22.08047 39000 ft 424 kts 175°
2026-05-07 12:36 47.63696 22.09371 39012 ft 425 kts 175°
2026-05-07 12:37 47.57846 22.10800 39019 ft 428 kts 171°
2026-05-07 12:37 47.52127 22.13265 39013 ft 428 kts 166°
2026-05-07 12:38 47.46465 22.16004 39012 ft 429 kts 166°
2026-05-07 12:38 47.40790 22.18721 39015 ft 430 kts 166°
2026-05-07 12:39 47.35095 22.21434 39015 ft 430 kts 166°
2026-05-07 12:39 47.29446 22.24119 39023 ft 429 kts 166°
2026-05-07 12:40 47.23768 22.26809 39017 ft 429 kts 166°
2026-05-07 12:40 47.18092 22.29492 39016 ft 428 kts 166°
2026-05-07 12:41 47.12421 22.32167 39019 ft 428 kts 166°
2026-05-07 12:41 47.06751 22.34835 39017 ft 427 kts 166°
2026-05-07 12:42 47.01088 22.37495 39021 ft 427 kts 166°
2026-05-07 12:42 46.95430 22.40145 39019 ft 427 kts 166°
2026-05-07 12:43 46.89768 22.42792 39020 ft 427 kts 166°
2026-05-07 12:43 46.84102 22.45435 39025 ft 428 kts 166°
2026-05-07 12:44 46.78430 22.48075 39035 ft 428 kts 166°
2026-05-07 12:44 46.72751 22.50712 39031 ft 428 kts 166°
2026-05-07 12:45 46.67062 22.53349 39037 ft 429 kts 166°
2026-05-07 12:45 46.61367 22.55981 39042 ft 430 kts 166°
2026-05-07 12:46 46.55654 22.58617 39048 ft 431 kts 166°
2026-05-07 12:46 46.49947 22.61244 39045 ft 429 kts 166°
2026-05-07 12:47 46.44294 22.63841 39040 ft 429 kts 166°
2026-05-07 12:47 46.38588 22.66455 39040 ft 431 kts 166°
2026-05-07 12:48 46.32875 22.69068 39038 ft 430 kts 166°
2026-05-07 12:48 46.27179 22.71667 39038 ft 429 kts 166°
2026-05-07 12:49 46.21481 22.74261 39034 ft 429 kts 166°
2026-05-07 12:49 46.15782 22.76850 39037 ft 430 kts 166°
2026-05-07 12:50 46.10064 22.79441 39038 ft 431 kts 166°
2026-05-07 12:50 46.04341 22.82030 39031 ft 431 kts 166°
2026-05-07 12:51 45.98623 22.84611 39033 ft 430 kts 166°
2026-05-07 12:51 45.92912 22.87184 39018 ft 430 kts 166°
2026-05-07 12:52 45.87201 22.89750 39021 ft 430 kts 166°
2026-05-07 12:52 45.81495 22.92308 39016 ft 430 kts 166°
2026-05-07 12:53 45.76750 22.94432 39025 ft 430 kts 166°
2026-05-07 12:53 45.71040 22.96982 39016 ft 430 kts 166°
2026-05-07 12:54 45.65328 22.99528 39030 ft 430 kts 166°
2026-05-07 12:54 45.59608 23.02073 39041 ft 431 kts 166°
2026-05-07 12:55 45.53883 23.04612 39048 ft 431 kts 166°
2026-05-07 12:55 45.48143 23.07155 39059 ft 432 kts 167°
2026-05-07 12:56 45.42401 23.09692 39060 ft 432 kts 167°
2026-05-07 12:56 45.36671 23.12218 39059 ft 430 kts 167°
2026-05-07 12:57 45.30952 23.14735 39061 ft 431 kts 167°
2026-05-07 12:57 45.25225 23.17249 39063 ft 431 kts 167°
2026-05-07 12:58 45.19497 23.19758 39061 ft 429 kts 167°
2026-05-07 12:58 45.13791 23.22254 39058 ft 429 kts 167°
2026-05-07 12:59 45.08092 23.24742 39055 ft 428 kts 167°
2026-05-07 12:59 45.02398 23.27221 39049 ft 428 kts 167°
2026-05-07 13:00 44.96743 23.29678 39060 ft 429 kts 167°
2026-05-07 13:00 44.91033 23.32153 39059 ft 429 kts 167°
2026-05-07 13:01 44.85323 23.34625 39056 ft 429 kts 167°
2026-05-07 13:01 44.79610 23.37092 39055 ft 429 kts 167°
2026-05-07 13:02 44.73895 23.39554 39053 ft 430 kts 166°
2026-05-07 13:02 44.68178 23.42013 39057 ft 430 kts 166°
2026-05-07 13:03 44.62447 23.44472 39058 ft 431 kts 166°
2026-05-07 13:03 44.56719 23.46926 39061 ft 431 kts 167°
2026-05-07 13:04 44.50980 23.49378 39062 ft 431 kts 167°
2026-05-07 13:04 44.45245 23.51826 39057 ft 431 kts 167°
2026-05-07 13:05 44.39506 23.54267 39064 ft 431 kts 166°
2026-05-07 13:05 44.33768 23.56704 39064 ft 431 kts 167°
2026-05-07 13:06 44.28032 23.59135 39051 ft 431 kts 167°
2026-05-07 13:06 44.22294 23.61562 39051 ft 431 kts 167°
2026-05-07 13:07 44.16560 23.63983 39050 ft 431 kts 167°
2026-05-07 13:07 44.10823 23.66398 39034 ft 431 kts 166°
2026-05-07 13:08 44.05085 23.68811 39036 ft 431 kts 166°
2026-05-07 13:08 43.99339 23.71223 38982 ft 432 kts 166°
2026-05-07 13:09 43.96461 23.72428 38757 ft 433 kts 166°
2026-05-07 13:09 43.93611 23.73622 38122 ft 435 kts 167°
2026-05-07 13:09 43.90714 23.74835 37459 ft 434 kts 167°
2026-05-07 13:09 43.87826 23.76044 36797 ft 433 kts 167°
2026-05-07 13:10 43.84935 23.77139 36147 ft 428 kts 174°
2026-05-07 13:10 43.82000 23.77567 35428 ft 422 kts 184°
2026-05-07 13:10 43.79063 23.77277 34730 ft 417 kts 193°
2026-05-07 13:10 43.76257 23.76320 33998 ft 414 kts 203°
2026-05-07 13:11 43.73638 23.74725 33250 ft 409 kts 212°
2026-05-07 13:11 43.71307 23.72595 32526 ft 406 kts 220°
2026-05-07 13:11 43.69043 23.70177 31777 ft 407 kts 220°
2026-05-07 13:11 43.66828 23.67831 31130 ft 405 kts 220°
2026-05-07 13:12 43.64601 23.65483 30619 ft 401 kts 219°
2026-05-07 13:12 43.62356 23.63116 30075 ft 418 kts 219°
2026-05-07 13:12 43.59998 23.60631 29455 ft 432 kts 219°
2026-05-07 13:12 43.57601 23.58111 28877 ft 434 kts 219°
2026-05-07 13:13 43.55209 23.55601 28288 ft 430 kts 219°
2026-05-07 13:13 43.52844 23.53121 27707 ft 424 kts 219°
2026-05-07 13:13 43.50512 23.50678 27139 ft 418 kts 219°
2026-05-07 13:13 43.48215 23.48273 26570 ft 412 kts 219°
2026-05-07 13:14 43.45951 23.45904 26008 ft 406 kts 218°
2026-05-07 13:14 43.43716 23.43566 25444 ft 401 kts 218°
2026-05-07 13:14 43.41505 23.41255 24849 ft 398 kts 218°
2026-05-07 13:14 43.39314 23.38967 24356 ft 393 kts 218°
2026-05-07 13:15 43.37143 23.36703 23795 ft 390 kts 218°
2026-05-07 13:15 43.34988 23.34459 23154 ft 387 kts 218°
2026-05-07 13:15 43.32864 23.32249 22655 ft 380 kts 218°
2026-05-07 13:15 43.30769 23.30073 22133 ft 375 kts 218°
2026-05-07 13:16 43.28707 23.27932 21601 ft 370 kts 218°
2026-05-07 13:16 43.26666 23.25814 21083 ft 366 kts 218°
2026-05-07 13:16 43.24648 23.23721 20554 ft 362 kts 218°
2026-05-07 13:16 43.22648 23.21649 20035 ft 359 kts 218°
2026-05-07 13:17 43.20663 23.19594 19510 ft 356 kts 218°
2026-05-07 13:17 43.18695 23.17559 18996 ft 353 kts 218°
2026-05-07 13:17 43.16739 23.15538 18452 ft 352 kts 217°
2026-05-07 13:17 43.14801 23.13535 17936 ft 347 kts 217°
2026-05-07 13:18 43.12884 23.11557 17434 ft 342 kts 217°
2026-05-07 13:18 43.10993 23.09609 16931 ft 338 kts 217°
2026-05-07 13:18 43.09123 23.07683 16437 ft 335 kts 217°
2026-05-07 13:18 43.07267 23.05773 15945 ft 332 kts 217°
2026-05-07 13:19 43.05427 23.03880 15457 ft 330 kts 217°
2026-05-07 13:19 43.03599 23.02003 14974 ft 328 kts 217°
2026-05-07 13:19 43.01807 23.00162 14499 ft 326 kts 217°
2026-05-07 13:19 43.00002 22.98309 14026 ft 324 kts 217°
2026-05-07 13:20 42.98202 22.96464 13518 ft 322 kts 217°
2026-05-07 13:20 42.96422 22.94640 13040 ft 318 kts 217°
2026-05-07 13:20 42.94661 22.92838 12576 ft 315 kts 217°
2026-05-07 13:20 42.92914 22.91050 12110 ft 313 kts 217°
2026-05-07 13:21 42.91180 22.89277 11644 ft 310 kts 217°
2026-05-07 13:21 42.89458 22.87519 11192 ft 308 kts 217°
2026-05-07 13:21 42.87752 22.85778 10740 ft 305 kts 217°
2026-05-07 13:21 42.86048 22.84041 10196 ft 306 kts 217°
2026-05-07 13:22 42.84379 22.82343 10065 ft 291 kts 217°
2026-05-07 13:22 42.82771 22.80737 9850 ft 282 kts 213°
2026-05-07 13:22 42.81036 22.79638 9704 ft 271 kts 198°
2026-05-07 13:22 42.79175 22.79220 9577 ft 276 kts 186°
2026-05-07 13:23 42.77218 22.79061 9264 ft 287 kts 181°
2026-05-07 13:23 42.75268 22.79667 9030 ft 289 kts 156°
2026-05-07 13:23 42.73702 22.81357 8731 ft 291 kts 131°
2026-05-07 13:23 42.72800 22.83828 8254 ft 298 kts 105°
2026-05-07 13:24 42.72559 22.86618 7890 ft 296 kts 95°
2026-05-07 13:24 42.72490 22.89413 7472 ft 295 kts 94°
2026-05-07 13:24 42.72427 22.92196 7121 ft 291 kts 95°
2026-05-07 13:24 42.72333 22.94891 7009 ft 279 kts 96°
2026-05-07 13:25 42.72216 22.97447 6981 ft 263 kts 97°
2026-05-07 13:25 42.72089 22.99868 6888 ft 251 kts 97°
2026-05-07 13:25 42.71965 23.02158 6713 ft 238 kts 98°
2026-05-07 13:25 42.71840 23.04374 6542 ft 232 kts 98°
2026-05-07 13:26 42.71716 23.06531 6231 ft 233 kts 98°
2026-05-07 13:26 42.71588 23.08741 5874 ft 237 kts 98°
2026-05-07 13:26 42.71456 23.11004 5505 ft 243 kts 99°
2026-05-07 13:26 42.71317 23.13324 5143 ft 249 kts 98°
2026-05-07 13:27 42.71179 23.15687 4751 ft 250 kts 98°
2026-05-07 13:27 42.71043 23.18036 4388 ft 249 kts 98°
2026-05-07 13:27 42.70906 23.20383 4078 ft 248 kts 98°
2026-05-07 13:27 42.70779 23.22643 3997 ft 229 kts 97°
2026-05-07 13:28 42.70679 23.24679 3973 ft 204 kts 99°
2026-05-07 13:28 42.70561 23.26576 3713 ft 201 kts 97°
2026-05-07 13:28 42.70453 23.28408 3479 ft 187 kts 96°
2026-05-07 13:28 42.70351 23.30096 3204 ft 171 kts 96°
2026-05-07 13:29 42.70260 23.31613 2983 ft 151 kts 96°
2026-05-07 13:29 42.70178 23.32965 2787 ft 136 kts 96°
2026-05-07 13:29 42.70097 23.34265 2608 ft 140 kts 95°
2026-05-07 13:29 42.70019 23.35576 2422 ft 139 kts 96°
2026-05-07 13:30 42.69940 23.36875 2230 ft 136 kts 96°
2026-05-07 13:30 42.69860 23.38191 2037 ft 141 kts 95°
2026-05-07 13:30 42.69777 23.39494 1813 ft 136 kts 94°
2026-05-07 13:30 42.69704 23.40717 1744 ft 112 kts 94°
2026-05-07 13:31 42.69660 23.41503 1749 ft 55 kts 97°
2026-05-07 13:31 42.69635 23.41898 1747 ft 30 kts 94°
2026-05-07 13:31 42.69621 23.42139 1741 ft 26 kts 95°
2026-05-07 13:31 42.69606 23.42387 1745 ft 25 kts 99°
2026-05-07 13:32 42.69559 23.42595 1744 ft 22 kts 118°
2026-05-07 13:32 42.69479 23.42748 1746 ft 18 kts 143°
2026-05-07 13:32 42.69401 23.42685 1750 ft 16 kts 272°
2026-05-07 13:32 42.69411 23.42525 1750 ft 18 kts 274°
2026-05-07 13:33 42.69338 23.42425 1750 ft 18 kts 182°
2026-05-07 13:33 42.69238 23.42349 1743 ft 18 kts 242°
2026-05-07 13:33 42.69198 23.42183 1746 ft 19 kts 254°
2026-05-07 13:33 42.69161 23.42012 1742 ft 20 kts 253°
2026-05-07 13:34 42.69118 23.41820 1741 ft 22 kts 254°
2026-05-07 13:34 42.69093 23.41602 1742 ft 4 kts 303°
2026-05-07 13:34 42.69108 23.41559 1742 ft 6 kts 264°
2026-05-07 13:35 42.69085 23.41494 1746 ft 8 kts 253°
2026-05-07 13:35 42.69078 23.41460 1748 ft 0 kts 254°
2026-05-07 13:35 42.69077 23.41459 1748 ft 0 kts 255°